| time (UTC) | temp F | wind direction | speed MPH | gust MPH | rain 1hr in | rain 24hr in | rain mn in | humidity % | barometer mb |
| 20260507201530 | 69 | 321 | 2.0 | 10.0 | 0.00 | 0.22 | 0.16 | 28 | 1005.1 |
| 20260507201008 | 69 | 31 | 2.0 | 10.0 | 0.00 | 0.22 | 0.16 | 27 | 1005.0 |
| 20260507200507 | 68 | 223 | 4.0 | 12.0 | 0.00 | 0.22 | 0.16 | 27 | 1005.0 |
| 20260507200015 | 68 | 233 | 4.0 | 12.0 | 0.00 | 0.22 | 0.16 | 27 | 1005.1 |
| 20260507195508 | 68 | 254 | 2.0 | 12.0 | 0.00 | 0.22 | 0.16 | 26 | 1005.1 |
| 20260507195007 | 69 | 294 | 4.0 | 12.0 | 0.00 | 0.22 | 0.16 | 27 | 1005.2 |
| 20260507194510 | 69 | 242 | 3.0 | 9.0 | 0.00 | 0.22 | 0.16 | 26 | 1005.3 |
| 20260507194009 | 69 | 208 | 2.0 | 8.0 | 0.00 | 0.22 | 0.16 | 26 | 1005.3 |
| 20260507193508 | 69 | 259 | 1.0 | 12.0 | 0.00 | 0.22 | 0.16 | 26 | 1005.3 |
| 20260507193026 | 69 | 289 | 2.0 | 12.0 | 0.00 | 0.22 | 0.16 | 27 | 1005.3 |
| 20260507192505 | 69 | 227 | 2.0 | 9.0 | 0.00 | 0.22 | 0.16 | 28 | 1005.4 |
| 20260507192009 | 68 | 69 | 3.0 | 11.0 | 0.00 | 0.22 | 0.16 | 29 | 1005.4 |
| 20260507191525 | 68 | 221 | 5.0 | 11.0 | 0.00 | 0.22 | 0.16 | 26 | 1005.4 |
| 20260507191010 | 68 | 219 | 1.0 | 10.0 | 0.00 | 0.22 | 0.16 | 25 | 1005.5 |
| 20260507190506 | 69 | 140 | 1.0 | 10.0 | 0.00 | 0.22 | 0.16 | 26 | 1005.5 |
| 20260507190022 | 69 | 67 | 1.0 | 13.0 | 0.00 | 0.22 | 0.16 | 27 | 1005.5 |
| 20260507185504 | 69 | 254 | 4.0 | 13.0 | 0.00 | 0.22 | 0.16 | 27 | 1005.5 |
| 20260507185006 | 69 | 177 | 2.0 | 10.0 | 0.00 | 0.22 | 0.16 | 29 | 1005.5 |
| 20260507184510 | 69 | 227 | 4.0 | 9.0 | 0.00 | 0.22 | 0.16 | 30 | 1005.5 |
| 20260507184005 | 69 | 229 | 2.0 | 10.0 | 0.00 | 0.22 | 0.16 | 30 | 1005.6 |
| 20260507183505 | 68 | 229 | 4.0 | 10.0 | 0.00 | 0.22 | 0.16 | 31 | 1005.6 |
| 20260507183023 | 68 | 239 | 5.0 | 9.0 | 0.00 | 0.22 | 0.16 | 31 | 1005.8 |
| 20260507182506 | 68 | 224 | 2.0 | 12.0 | 0.00 | 0.22 | 0.16 | 33 | 1005.7 |
| 20260507182005 | 68 | 210 | 4.0 | 12.0 | 0.00 | 0.22 | 0.16 | 32 | 1005.7 |
| 20260507181511 | 68 | 237 | 4.0 | 11.0 | 0.00 | 0.22 | 0.16 | 34 | 1005.9 |
| 20260507181008 | 68 | 220 | 1.0 | 12.0 | 0.00 | 0.22 | 0.16 | 32 | 1006.0 |
| 20260507180504 | 67 | 354 | 3.0 | 12.0 | 0.00 | 0.22 | 0.16 | 34 | 1005.9 |
| 20260507180005 | 68 | 182 | 3.0 | 11.0 | 0.00 | 0.22 | 0.16 | 32 | 1006.0 |
| 20260507175503 | 68 | 229 | 4.0 | 11.0 | 0.00 | 0.22 | 0.16 | 32 | 1005.9 |
| 20260507175006 | 68 | 252 | 1.0 | 5.0 | 0.00 | 0.22 | 0.16 | 35 | 1005.9 |
| 20260507174514 | 68 | 158 | 1.0 | 14.0 | 0.00 | 0.22 | 0.16 | 36 | 1005.8 |
| 20260507174004 | 67 | 241 | 7.0 | 14.0 | 0.00 | 0.22 | 0.16 | 36 | 1005.8 |
| 20260507173504 | 67 | 275 | 3.0 | 12.0 | 0.00 | 0.22 | 0.16 | 36 | 1005.8 |
| 20260507173016 | 67 | 275 | 3.0 | 12.0 | 0.00 | 0.22 | 0.16 | 37 | 1005.8 |
| 20260507172506 | 68 | 230 | 3.0 | 9.0 | 0.00 | 0.22 | 0.16 | 37 | 1005.9 |
| 20260507172006 | 67 | 340 | 2.0 | 13.0 | 0.00 | 0.22 | 0.16 | 39 | 1006.0 |
| 20260507171512 | 67 | 275 | 4.0 | 13.0 | 0.00 | 0.22 | 0.16 | 41 | 1006.0 |
| 20260507171009 | 66 | 256 | 3.0 | 12.0 | 0.00 | 0.22 | 0.16 | 41 | 1006.0 |
| 20260507170506 | 66 | 267 | 3.0 | 12.0 | 0.00 | 0.22 | 0.16 | 41 | 1006.0 |
| 20260507170030 | 65 | 234 | 2.0 | 5.0 | 0.00 | 0.22 | 0.16 | 44 | 1006.1 |
| 20260507165503 | 65 | 244 | 1.0 | 9.0 | 0.00 | 0.22 | 0.16 | 42 | 1006.1 |
| 20260507165004 | 65 | 242 | 1.0 | 8.0 | 0.00 | 0.22 | 0.16 | 44 | 1006.4 |
| 20260507164506 | 65 | 236 | 2.0 | 7.0 | 0.00 | 0.22 | 0.16 | 47 | 1006.4 |
| 20260507164004 | 66 | 216 | 2.0 | 9.0 | 0.00 | 0.22 | 0.16 | 45 | 1006.5 |
| 20260507163504 | 66 | 232 | 3.0 | 9.0 | 0.00 | 0.22 | 0.16 | 45 | 1006.5 |
| 20260507163014 | 65 | 226 | 2.0 | 10.0 | 0.00 | 0.22 | 0.16 | 47 | 1006.5 |
| 20260507162506 | 64 | 227 | 2.0 | 10.0 | 0.00 | 0.22 | 0.16 | 48 | 1006.7 |
| 20260507162007 | 64 | 215 | 5.0 | 7.0 | 0.00 | 0.22 | 0.16 | 46 | 1006.8 |
| 20260507161513 | 65 | 5 | 2.0 | 6.0 | 0.00 | 0.22 | 0.16 | 47 | 1006.8 |
| 20260507161004 | 65 | 229 | 2.0 | 5.0 | 0.00 | 0.22 | 0.16 | 47 | 1006.8 |
| 20260507160505 | 65 | 217 | 1.0 | 3.0 | 0.00 | 0.22 | 0.16 | 50 | 1006.9 |
| 20260507160012 | 64 | 288 | 0.0 | 8.0 | 0.00 | 0.22 | 0.16 | 49 | 1007.0 |
| 20260507155505 | 64 | 20 | 2.0 | 8.0 | 0.00 | 0.22 | 0.16 | 50 | 1007.0 |
| 20260507155006 | 64 | 235 | 1.0 | 7.0 | 0.00 | 0.22 | 0.16 | 48 | 1007.0 |
| 20260507154515 | 63 | 272 | 3.0 | 7.0 | 0.00 | 0.22 | 0.16 | 47 | 1007.1 |
| 20260507154009 | 64 | 27 | 2.0 | 9.0 | 0.00 | 0.22 | 0.16 | 47 | 1007.1 |
| 20260507153506 | 64 | 244 | 1.0 | 9.0 | 0.00 | 0.22 | 0.16 | 49 | 1007.2 |
| 20260507153011 | 65 | 233 | 4.0 | 9.0 | 0.00 | 0.22 | 0.16 | 49 | 1007.2 |
| 20260507152504 | 64 | 230 | 3.0 | 9.0 | 0.00 | 0.22 | 0.16 | 48 | 1007.2 |
| 20260507152008 | 64 | 240 | 5.0 | 10.0 | 0.00 | 0.22 | 0.16 | 47 | 1007.3 |
| 20260507151519 | 63 | 236 | 3.0 | 10.0 | 0.00 | 0.22 | 0.16 | 49 | 1007.3 |
| 20260507151008 | 63 | 253 | 1.0 | 9.0 | 0.00 | 0.22 | 0.16 | 48 | 1007.3 |
| 20260507150507 | 63 | 233 | 5.0 | 9.0 | 0.00 | 0.22 | 0.16 | 47 | 1007.4 |
| 20260507150015 | 63 | 231 | 4.0 | 9.0 | 0.00 | 0.22 | 0.16 | 47 | 1007.4 |
| 20260507145506 | 63 | 236 | 2.0 | 9.0 | 0.00 | 0.22 | 0.16 | 48 | 1007.5 |
| 20260507145006 | 63 | 238 | 3.0 | 10.0 | 0.00 | 0.22 | 0.16 | 50 | 1007.5 |
| 20260507144518 | 63 | 243 | 5.0 | 10.0 | 0.00 | 0.22 | 0.16 | 48 | 1007.6 |
| 20260507144007 | 63 | 265 | 1.0 | 8.0 | 0.00 | 0.22 | 0.16 | 50 | 1007.7 |
| 20260507143507 | 63 | 229 | 2.0 | 8.0 | 0.00 | 0.22 | 0.16 | 51 | 1007.7 |
| 20260507143016 | 62 | 346 | 2.0 | 6.0 | 0.00 | 0.22 | 0.16 | 48 | 1007.6 |
| 20260507142507 | 62 | 257 | 2.0 | 5.0 | 0.00 | 0.22 | 0.16 | 50 | 1007.6 |
| 20260507142008 | 62 | 215 | 1.0 | 4.0 | 0.00 | 0.22 | 0.16 | 50 | 1007.7 |
| 20260507141511 | 62 | 318 | 1.0 | 6.0 | 0.00 | 0.22 | 0.16 | 50 | 1007.8 |
| 20260507141007 | 62 | 342 | 1.0 | 7.0 | 0.00 | 0.22 | 0.16 | 51 | 1007.7 |
| 20260507140506 | 61 | 240 | 1.0 | 6.0 | 0.00 | 0.22 | 0.16 | 52 | 1007.7 |
| 20260507140019 | 61 | 47 | 1.0 | 6.0 | 0.00 | 0.22 | 0.16 | 52 | 1007.7 |
| 20260507135506 | 61 | 69 | 1.0 | 6.0 | 0.00 | 0.22 | 0.16 | 54 | 1007.8 |
| 20260507135006 | 60 | 356 | 2.0 | 7.0 | 0.00 | 0.22 | 0.16 | 53 | 1007.7 |
| 20260507134519 | 60 | 319 | 2.0 | 7.0 | 0.00 | 0.22 | 0.16 | 55 | 1007.8 |
| 20260507134007 | 60 | 331 | 2.0 | 7.0 | 0.00 | 0.22 | 0.16 | 59 | 1007.8 |
| 20260507133509 | 59 | 265 | 2.0 | 7.0 | 0.00 | 0.22 | 0.16 | 62 | 1007.8 |
| 20260507133016 | 58 | 349 | 1.0 | 7.0 | 0.00 | 0.22 | 0.16 | 62 | 1007.7 |
| 20260507132507 | 58 | 358 | 2.0 | 7.0 | 0.00 | 0.22 | 0.16 | 62 | 1007.8 |
| 20260507132007 | 58 | 213 | 1.0 | 7.0 | 0.00 | 0.22 | 0.16 | 66 | 1008.0 |
| 20260507131518 | 58 | 86 | 2.0 | 7.0 | 0.00 | 0.22 | 0.16 | 66 | 1007.9 |
| 20260507131007 | 57 | 229 | 1.0 | 7.0 | 0.00 | 0.22 | 0.16 | 71 | 1007.9 |
| 20260507130508 | 56 | 311 | 1.0 | 7.0 | 0.00 | 0.22 | 0.16 | 73 | 1007.9 |
| 20260507130019 | 56 | 79 | 1.0 | 6.0 | 0.00 | 0.22 | 0.16 | 73 | 1008.0 |
| 20260507125512 | 55 | 150 | 2.0 | 6.0 | 0.00 | 0.22 | 0.16 | 76 | 1008.1 |
| 20260507125005 | 54 | 217 | 1.0 | 4.0 | 0.00 | 0.22 | 0.16 | 78 | 1008.1 |
| 20260507124516 | 54 | 254 | 1.0 | 7.0 | 0.00 | 0.22 | 0.16 | 81 | 1008.2 |
| 20260507124007 | 53 | 300 | 2.0 | 7.0 | 0.00 | 0.22 | 0.16 | 82 | 1008.2 |
| 20260507123509 | 52 | 148 | 0.0 | 3.0 | 0.00 | 0.22 | 0.16 | 83 | 1008.1 |
| 20260507123023 | 52 | 248 | 0.0 | 5.0 | 0.00 | 0.22 | 0.16 | 84 | 1008.3 |
| 20260507122507 | 51 | 175 | 0.0 | 5.0 | 0.00 | 0.22 | 0.16 | 85 | 1008.1 |
| 20260507122013 | 51 | 192 | 0.0 | 5.0 | 0.00 | 0.22 | 0.16 | 85 | 1008.0 |
| 20260507121518 | 51 | 358 | 0.0 | 5.0 | 0.00 | 0.22 | 0.16 | 85 | 1007.9 |
| 20260507121007 | 50 | 356 | 0.0 | 5.0 | 0.00 | 0.22 | 0.16 | 85 | 1008.1 |
| 20260507120508 | 50 | 13 | 2.0 | 5.0 | 0.00 | 0.22 | 0.16 | 85 | 1007.8 |
| 20260507120016 | 50 | 278 | 1.0 | 4.0 | 0.00 | 0.22 | 0.16 | 85 | 1007.9 |
| 20260507115506 | 50 | 31 | 1.0 | 2.0 | 0.00 | 0.22 | 0.16 | 85 | 1007.9 |
| 20260507115012 | 50 | 242 | 1.0 | 2.0 | 0.00 | 0.22 | 0.16 | 85 | 1008.0 |
| 20260507114520 | 50 | 108 | 0.0 | 2.0 | 0.00 | 0.22 | 0.16 | 85 | 1007.9 |
| 20260507114011 | 50 | 272 | 0.0 | 2.0 | 0.00 | 0.22 | 0.16 | 85 | 1007.9 |
| 20260507113507 | 50 | 214 | 0.0 | 2.0 | 0.00 | 0.22 | 0.16 | 86 | 1007.7 |
| 20260507113025 | 50 | 317 | 0.0 | 4.0 | 0.00 | 0.22 | 0.16 | 86 | 1007.7 |
| 20260507112508 | 50 | 282 | 0.0 | 4.0 | 0.01 | 0.22 | 0.16 | 86 | 1007.6 |
| 20260507112008 | 50 | 9 | 0.0 | 2.0 | 0.01 | 0.22 | 0.16 | 86 | 1007.6 |
| 20260507111522 | 50 | 277 | 0.0 | 3.0 | 0.01 | 0.22 | 0.16 | 86 | 1007.8 |
| 20260507111007 | 50 | 236 | 0.0 | 3.0 | 0.01 | 0.22 | 0.16 | 86 | 1007.8 |
| 20260507110509 | 49 | 261 | 0.0 | 2.0 | 0.01 | 0.22 | 0.16 | 87 | 1007.5 |
| 20260507110016 | 49 | 339 | 0.0 | 2.0 | 0.02 | 0.22 | 0.16 | 87 | 1007.5 |
| 20260507105506 | 49 | 237 | 0.0 | 2.0 | 0.02 | 0.22 | 0.16 | 87 | 1007.5 |
| 20260507105008 | 49 | 286 | 0.0 | 2.0 | 0.02 | 0.22 | 0.16 | 87 | 1007.5 |
| 20260507104522 | 49 | 239 | 0.0 | 2.0 | 0.03 | 0.22 | 0.16 | 87 | 1007.8 |
| 20260507104010 | 49 | 239 | 0.0 | 2.0 | 0.03 | 0.22 | 0.16 | 87 | 1008.0 |
| 20260507103509 | 49 | 232 | 0.0 | 2.0 | 0.04 | 0.22 | 0.16 | 87 | 1008.3 |
| 20260507103020 | 49 | 232 | 0.0 | 0.0 | 0.04 | 0.22 | 0.16 | 87 | 1007.9 |
| 20260507102506 | 49 | 313 | 0.0 | 0.0 | 0.03 | 0.21 | 0.15 | 87 | 1007.5 |
| 20260507102009 | 49 | 313 | 0.0 | 2.0 | 0.04 | 0.21 | 0.15 | 87 | 1007.5 |
| 20260507101522 | 49 | 232 | 0.0 | 2.0 | 0.04 | 0.21 | 0.15 | 86 | 1007.8 |
| 20260507101009 | 49 | 238 | 0.0 | 5.0 | 0.05 | 0.21 | 0.15 | 86 | 1007.8 |
| 20260507100507 | 50 | 277 | 0.0 | 5.0 | 0.06 | 0.21 | 0.15 | 86 | 1007.6 |
| 20260507100021 | 50 | 284 | 0.0 | 3.0 | 0.06 | 0.20 | 0.14 | 86 | 1007.4 |
| 20260507095510 | 50 | 348 | 1.0 | 4.0 | 0.07 | 0.20 | 0.14 | 87 | 1007.2 |
| 20260507095007 | 50 | 63 | 0.0 | 4.0 | 0.09 | 0.20 | 0.14 | 86 | 1007.4 |
| 20260507094506 | 50 | 5 | 1.0 | 4.0 | 0.09 | 0.19 | 0.13 | 86 | 1007.3 |
| 20260507094003 | 50 | 30 | 0.0 | 3.0 | 0.10 | 0.19 | 0.13 | 86 | 1007.6 |
| 20260507093506 | 50 | 209 | 1.0 | 8.0 | 0.09 | 0.18 | 0.12 | 86 | 1007.5 |
| 20260507093010 | 50 | 223 | 1.0 | 8.0 | 0.09 | 0.18 | 0.12 | 86 | 1007.2 |
| 20260507092504 | 51 | 346 | 2.0 | 6.0 | 0.09 | 0.18 | 0.12 | 86 | 1006.9 |
| 20260507092002 | 51 | 6 | 1.0 | 5.0 | 0.09 | 0.17 | 0.11 | 86 | 1006.8 |
| 20260507091504 | 51 | 30 | 1.0 | 5.0 | 0.10 | 0.17 | 0.11 | 86 | 1007.1 |
| 20260507091003 | 51 | 322 | 1.0 | 5.0 | 0.09 | 0.16 | 0.10 | 85 | 1007.2 |
| 20260507090504 | 51 | 246 | 1.0 | 9.0 | 0.08 | 0.15 | 0.09 | 85 | 1007.4 |
| 20260507090010 | 51 | 14 | 2.0 | 9.0 | 0.08 | 0.14 | 0.08 | 84 | 1007.3 |
| 20260507085504 | 52 | 211 | 1.0 | 4.0 | 0.07 | 0.13 | 0.07 | 84 | 1007.4 |
| 20260507085007 | 52 | 250 | 0.0 | 4.0 | 0.05 | 0.11 | 0.05 | 84 | 1007.3 |
| 20260507084529 | 52 | 144 | 0.0 | 5.0 | 0.04 | 0.10 | 0.04 | 84 | 1007.4 |
| 20260507084007 | 53 | 37 | 0.0 | 5.0 | 0.03 | 0.09 | 0.03 | 84 | 1007.1 |
| 20260507083511 | 53 | 9 | 0.0 | 4.0 | 0.03 | 0.09 | 0.03 | 85 | 1006.8 |
| 20260507083009 | 53 | 267 | 1.0 | 4.0 | 0.03 | 0.09 | 0.03 | 85 | 1006.8 |
| 20260507082507 | 54 | 347 | 0.0 | 4.0 | 0.03 | 0.09 | 0.03 | 85 | 1006.8 |
| 20260507082009 | 54 | 336 | 1.0 | 5.0 | 0.02 | 0.08 | 0.02 | 85 | 1006.7 |
| 20260507081505 | 54 | 346 | 0.0 | 5.0 | 0.01 | 0.07 | 0.01 | 84 | 1007.0 |
| 20260507081003 | 54 | 22 | 1.0 | 3.0 | 0.01 | 0.07 | 0.01 | 83 | 1007.2 |
| 20260507080504 | 54 | 340 | 0.0 | 3.0 | 0.01 | 0.07 | 0.01 | 83 | 1007.2 |
| 20260507080009 | 54 | 350 | 0.0 | 5.0 | 0.00 | 0.06 | 0.00 | 82 | 1006.9 |
| 20260507075503 | 54 | 56 | 0.0 | 7.0 | 0.00 | 0.06 | 0.00 | 81 | 1006.8 |
| 20260507075007 | 55 | 42 | 1.0 | 8.0 | 0.00 | 0.06 | 0.00 | 80 | 1006.7 |
| 20260507074514 | 55 | 48 | 2.0 | 8.0 | 0.00 | 0.06 | 0.00 | 79 | 1006.9 |
| 20260507074004 | 55 | 11 | 1.0 | 6.0 | 0.00 | 0.06 | 0.00 | 78 | 1006.6 |
| 20260507073508 | 55 | 352 | 1.0 | 7.0 | 0.00 | 0.06 | 0.00 | 78 | 1006.5 |
| 20260507073019 | 55 | 284 | 2.0 | 7.0 | 0.00 | 0.06 | 0.00 | 77 | 1006.2 |
| 20260507072507 | 55 | 346 | 1.0 | 7.0 | 0.00 | 0.06 | 0.00 | 77 | 1006.1 |
| 20260507072003 | 55 | 3 | 3.0 | 7.0 | 0.00 | 0.06 | 0.00 | 79 | 1006.0 |
| 20260507071520 | 55 | 3 | 2.0 | 5.0 | 0.00 | 0.06 | 0.00 | 80 | 1006.1 |
| 20260507071008 | 56 | 352 | 0.0 | 6.0 | 0.00 | 0.06 | 0.00 | 81 | 1006.4 |
| 20260507070504 | 56 | 350 | 1.0 | 7.0 | 0.00 | 0.06 | 0.00 | 81 | 1006.1 |
| 20260507070010 | 56 | 354 | 1.0 | 7.0 | 0.00 | 0.06 | 0.00 | 81 | 1006.0 |
| 20260507065506 | 56 | 291 | 1.0 | 7.0 | 0.00 | 0.06 | 0.00 | 82 | 1006.2 |
| 20260507065004 | 56 | 178 | 2.0 | 7.0 | 0.00 | 0.06 | 0.00 | 83 | 1006.2 |
| 20260507064509 | 57 | 326 | 2.0 | 9.0 | 0.00 | 0.06 | 0.00 | 84 | 1006.2 |
| 20260507064004 | 57 | 356 | 2.0 | 9.0 | 0.00 | 0.06 | 0.00 | 83 | 1006.2 |
| 20260507063508 | 57 | 25 | 1.0 | 6.0 | 0.00 | 0.06 | 0.00 | 83 | 1006.4 |
| 20260507063005 | 57 | 360 | 1.0 | 8.0 | 0.00 | 0.06 | 0.00 | 83 | 1006.2 |
| 20260507062503 | 57 | 102 | 1.0 | 8.0 | 0.00 | 0.06 | 0.00 | 83 | 1005.9 |
| 20260507062011 | 57 | 24 | 3.0 | 6.0 | 0.00 | 0.06 | 0.00 | 83 | 1006.0 |
| 20260507061522 | 57 | 350 | 0.0 | 5.0 | 0.00 | 0.06 | 0.00 | 84 | 1006.0 |
| 20260507061004 | 58 | 8 | 1.0 | 5.0 | 0.00 | 0.06 | 0.00 | 84 | 1006.1 |
| 20260507060506 | 58 | 357 | 1.0 | 5.0 | 0.00 | 0.06 | 0.00 | 84 | 1006.1 |
| 20260507060021 | 58 | 13 | 1.0 | 7.0 | 0.00 | 0.06 | 0.00 | 84 | 1006.1 |
| 20260507055504 | 58 | 178 | 1.0 | 7.0 | 0.00 | 0.06 | 0.00 | 84 | 1006.4 |
| 20260507055004 | 58 | 354 | 2.0 | 6.0 | 0.00 | 0.06 | 0.00 | 85 | 1006.2 |
| 20260507054508 | 59 | 5 | 2.0 | 6.0 | 0.00 | 0.06 | 0.00 | 86 | 1006.6 |
| 20260507054010 | 59 | 228 | 0.0 | 3.0 | 0.00 | 0.06 | 0.00 | 86 | 1006.5 |
| 20260507053506 | 59 | 228 | 1.0 | 3.0 | 0.00 | 0.06 | 0.00 | 86 | 1006.5 |
| 20260507053013 | 59 | 9 | 0.0 | 3.0 | 0.00 | 0.06 | 0.00 | 86 | 1006.5 |
| 20260507052507 | 59 | 277 | 1.0 | 3.0 | 0.00 | 0.06 | 0.00 | 87 | 1006.3 |
| 20260507052007 | 59 | 286 | 0.0 | 4.0 | 0.00 | 0.06 | 0.00 | 87 | 1006.2 |
| 20260507051512 | 59 | 259 | 1.0 | 7.0 | 0.00 | 0.06 | 0.00 | 87 | 1006.1 |
| 20260507051007 | 59 | 321 | 2.0 | 5.0 | 0.00 | 0.06 | 0.00 | 88 | 1006.3 |
| 20260507050506 | 59 | 206 | 1.0 | 8.0 | 0.00 | 0.06 | 0.00 | 88 | 1006.3 |
| 20260507050024 | 59 | 190 | 3.0 | 7.0 | 0.00 | 0.06 | 0.00 | 89 | 1006.4 |
| 20260507045507 | 59 | 242 | 2.0 | 7.0 | 0.00 | 0.06 | 0.00 | 89 | 1006.2 |
| 20260507045007 | 59 | 233 | 4.0 | 7.0 | 0.00 | 0.06 | 0.00 | 90 | 1006.2 |
| 20260507044505 | 60 | 231 | 2.0 | 4.0 | 0.00 | 0.06 | 0.00 | 90 | 1006.1 |
| 20260507044005 | 59 | 214 | 1.0 | 5.0 | 0.00 | 0.06 | 0.00 | 91 | 1006.0 |
| 20260507043506 | 59 | 246 | 2.0 | 6.0 | 0.00 | 0.06 | 0.00 | 91 | 1006.1 |
| 20260507043011 | 59 | 213 | 3.0 | 6.0 | 0.00 | 0.06 | 0.00 | 91 | 1006.0 |
| 20260507042507 | 59 | 248 | 1.0 | 4.0 | 0.00 | 0.06 | 0.00 | 91 | 1006.0 |
| 20260507042006 | 59 | 223 | 2.0 | 8.0 | 0.00 | 0.06 | 0.00 | 91 | 1006.0 |
| 20260507041516 | 59 | 265 | 2.0 | 9.0 | 0.00 | 0.06 | 0.00 | 91 | 1006.0 |
| 20260507041010 | 59 | 223 | 3.0 | 10.0 | 0.00 | 0.06 | 0.00 | 91 | 1006.2 |
| 20260507040506 | 59 | 217 | 3.0 | 10.0 | 0.00 | 0.06 | 0.00 | 91 | 1006.2 |
| 20260507040018 | 59 | 234 | 3.0 | 8.0 | 0.00 | 0.06 | 0.00 | 91 | 1006.4 |
| 20260507035508 | 59 | 239 | 3.0 | 10.0 | 0.00 | 0.06 | 0.06 | 91 | 1006.2 |
| 20260507035004 | 59 | 218 | 4.0 | 10.0 | 0.00 | 0.06 | 0.06 | 91 | 1006.4 |
| 20260507034513 | 59 | 242 | 4.0 | 9.0 | 0.00 | 0.06 | 0.06 | 91 | 1006.2 |
| 20260507034008 | 59 | 242 | 4.0 | 9.0 | 0.00 | 0.06 | 0.06 | 91 | 1006.2 |
| 20260507033510 | 59 | 240 | 3.0 | 11.0 | 0.00 | 0.06 | 0.06 | 91 | 1006.2 |
| 20260507033010 | 58 | 233 | 5.0 | 11.0 | 0.00 | 0.06 | 0.06 | 91 | 1006.1 |
| 20260507032507 | 58 | 250 | 3.0 | 10.0 | 0.00 | 0.06 | 0.06 | 91 | 1006.1 |
| 20260507032007 | 58 | 279 | 3.0 | 10.0 | 0.00 | 0.06 | 0.06 | 91 | 1006.0 |
| 20260507031507 | 58 | 203 | 5.0 | 10.0 | 0.00 | 0.06 | 0.06 | 91 | 1006.0 |
| 20260507031009 | 58 | 259 | 3.0 | 10.0 | 0.00 | 0.06 | 0.06 | 91 | 1005.8 |
| 20260507030509 | 58 | 228 | 4.0 | 10.0 | 0.00 | 0.06 | 0.06 | 91 | 1005.7 |
| 20260507030020 | 58 | 236 | 4.0 | 10.0 | 0.00 | 0.06 | 0.06 | 91 | 1005.6 |
| 20260507025509 | 58 | 212 | 3.0 | 9.0 | 0.00 | 0.06 | 0.06 | 91 | 1005.6 |
| 20260507025008 | 58 | 229 | 2.0 | 8.0 | 0.00 | 0.06 | 0.06 | 91 | 1005.8 |
| 20260507024522 | 58 | 248 | 4.0 | 10.0 | 0.00 | 0.06 | 0.06 | 91 | 1006.0 |
| 20260507024012 | 58 | 213 | 3.0 | 10.0 | 0.00 | 0.06 | 0.06 | 91 | 1005.9 |
| 20260507023508 | 58 | 261 | 4.0 | 10.0 | 0.00 | 0.06 | 0.06 | 91 | 1005.8 |
| 20260507023020 | 58 | 247 | 5.0 | 10.0 | 0.00 | 0.06 | 0.06 | 91 | 1005.8 |
| 20260507022511 | 58 | 249 | 7.0 | 10.0 | 0.00 | 0.06 | 0.06 | 91 | 1005.8 |
| 20260507022007 | 58 | 254 | 3.0 | 9.0 | 0.00 | 0.06 | 0.06 | 91 | 1005.8 |
| 20260507021514 | 58 | 263 | 5.0 | 11.0 | 0.00 | 0.06 | 0.06 | 91 | 1005.9 |
| 20260507021007 | 57 | 259 | 5.0 | 11.0 | 0.00 | 0.06 | 0.06 | 91 | 1005.9 |
| 20260507020508 | 57 | 269 | 4.0 | 11.0 | 0.00 | 0.06 | 0.06 | 91 | 1005.8 |
| 20260507020016 | 57 | 219 | 2.0 | 11.0 | 0.00 | 0.06 | 0.06 | 91 | 1005.9 |
| 20260507015506 | 57 | 246 | 3.0 | 10.0 | 0.00 | 0.06 | 0.06 | 91 | 1005.8 |
| 20260507015010 | 57 | 214 | 2.0 | 11.0 | 0.00 | 0.06 | 0.06 | 91 | 1005.9 |
| 20260507014511 | 57 | 249 | 4.0 | 10.0 | 0.00 | 0.06 | 0.06 | 91 | 1006.1 |
| 20260507014009 | 57 | 232 | 4.0 | 11.0 | 0.00 | 0.06 | 0.06 | 91 | 1006.0 |
| 20260507013507 | 57 | 232 | 5.0 | 12.0 | 0.00 | 0.06 | 0.06 | 91 | 1006.1 |
| 20260507013026 | 57 | 246 | 4.0 | 12.0 | 0.00 | 0.06 | 0.06 | 91 | 1006.1 |
| 20260507012506 | 57 | 252 | 5.0 | 13.0 | 0.00 | 0.06 | 0.06 | 90 | 1006.3 |
| 20260507012012 | 57 | 233 | 5.0 | 13.0 | 0.00 | 0.06 | 0.06 | 90 | 1006.2 |
| 20260507011528 | 57 | 228 | 5.0 | 12.0 | 0.00 | 0.06 | 0.06 | 90 | 1006.3 |
| 20260507011004 | 57 | 252 | 7.0 | 13.0 | 0.00 | 0.06 | 0.06 | 90 | 1006.4 |
| 20260507010511 | 57 | 258 | 6.0 | 13.0 | 0.00 | 0.06 | 0.06 | 90 | 1006.4 |
| 20260507010023 | 57 | 237 | 6.0 | 14.0 | 0.01 | 0.06 | 0.06 | 90 | 1006.4 |
| 20260507005504 | 57 | 250 | 7.0 | 14.0 | 0.01 | 0.06 | 0.06 | 90 | 1006.4 |
| 20260507005006 | 57 | 261 | 5.0 | 14.0 | 0.01 | 0.06 | 0.06 | 90 | 1006.4 |
| 20260507004520 | 57 | 233 | 3.0 | 11.0 | 0.01 | 0.06 | 0.06 | 90 | 1006.3 |
| 20260507004007 | 57 | 254 | 3.0 | 13.0 | 0.01 | 0.06 | 0.06 | 90 | 1006.3 |
| 20260507003510 | 57 | 260 | 5.0 | 13.0 | 0.01 | 0.06 | 0.06 | 90 | 1006.4 |
| 20260507003019 | 57 | 272 | 5.0 | 15.0 | 0.02 | 0.06 | 0.06 | 90 | 1006.3 |
| 20260507002503 | 57 | 227 | 7.0 | 15.0 | 0.02 | 0.06 | 0.06 | 90 | 1006.2 |
| 20260507002003 | 57 | 234 | 6.0 | 13.0 | 0.02 | 0.06 | 0.06 | 90 | 1006.2 |
| 20260507001507 | 57 | 228 | 4.0 | 13.0 | 0.02 | 0.06 | 0.06 | 90 | 1006.1 |
| 20260507001003 | 57 | 250 | 4.0 | 13.0 | 0.02 | 0.06 | 0.06 | 90 | 1006.1 |
| 20260507000506 | 57 | 236 | 6.0 | 13.0 | 0.02 | 0.06 | 0.06 | 90 | 1006.0 |
| 20260507000012 | 57 | 223 | 6.0 | 11.0 | 0.01 | 0.05 | 0.05 | 90 | 1006.1 |
| 20260506235509 | 57 | 242 | 6.0 | 14.0 | 0.01 | 0.05 | 0.05 | 90 | 1006.1 |
| 20260506235007 | 57 | 199 | 4.0 | 14.0 | 0.01 | 0.05 | 0.05 | 90 | 1006.0 |
| 20260506234512 | 57 | 259 | 6.0 | 14.0 | 0.01 | 0.05 | 0.05 | 89 | 1006.0 |
| 20260506234011 | 57 | 236 | 7.0 | 14.0 | 0.01 | 0.05 | 0.05 | 89 | 1005.9 |
| 20260506233509 | 58 | 243 | 7.0 | 14.0 | 0.01 | 0.05 | 0.05 | 89 | 1005.9 |
| 20260506233009 | 58 | 215 | 7.0 | 13.0 | 0.00 | 0.04 | 0.04 | 89 | 1006.0 |
| 20260506232506 | 58 | 245 | 6.0 | 13.0 | 0.00 | 0.04 | 0.04 | 89 | 1005.9 |
| 20260506232010 | 58 | 247 | 6.0 | 13.0 | 0.01 | 0.04 | 0.04 | 89 | 1005.9 |
| 20260506231507 | 58 | 241 | 6.0 | 13.0 | 0.01 | 0.04 | 0.04 | 89 | 1006.2 |
| 20260506231004 | 58 | 250 | 5.0 | 12.0 | 0.01 | 0.04 | 0.04 | 89 | 1006.4 |
| 20260506230504 | 58 | 240 | 8.0 | 12.0 | 0.01 | 0.04 | 0.04 | 89 | 1006.4 |
| 20260506230013 | 58 | 217 | 6.0 | 12.0 | 0.01 | 0.04 | 0.04 | 89 | 1006.2 |
| 20260506225504 | 58 | 238 | 6.0 | 12.0 | 0.01 | 0.04 | 0.04 | 89 | 1006.1 |
| 20260506225006 | 58 | 257 | 6.0 | 14.0 | 0.02 | 0.04 | 0.04 | 89 | 1006.2 |
| 20260506224515 | 58 | 246 | 7.0 | 14.0 | 0.02 | 0.04 | 0.04 | 89 | 1006.3 |
| 20260506224008 | 58 | 188 | 5.0 | 14.0 | 0.02 | 0.04 | 0.04 | 89 | 1006.5 |
| 20260506223507 | 58 | 220 | 8.0 | 14.0 | 0.02 | 0.04 | 0.04 | 89 | 1006.6 |
| 20260506223016 | 58 | 261 | 4.0 | 11.0 | 0.03 | 0.04 | 0.04 | 89 | 1006.6 |
| 20260506222510 | 59 | 199 | 5.0 | 11.0 | 0.03 | 0.04 | 0.04 | 88 | 1006.7 |
| 20260506222005 | 59 | 263 | 3.0 | 13.0 | 0.02 | 0.03 | 0.03 | 88 | 1006.7 |
| 20260506221516 | 59 | 213 | 4.0 | 13.0 | 0.02 | 0.03 | 0.03 | 88 | 1006.8 |
| 20260506221009 | 59 | 256 | 7.0 | 13.0 | 0.02 | 0.03 | 0.03 | 87 | 1006.9 |
| 20260506220504 | 59 | 256 | 4.0 | 13.0 | 0.02 | 0.03 | 0.03 | 87 | 1006.8 |
| 20260506220008 | 60 | 223 | 4.0 | 13.0 | 0.02 | 0.03 | 0.03 | 88 | 1006.9 |
| 20260506215507 | 60 | 186 | 4.0 | 11.0 | 0.02 | 0.03 | 0.03 | 87 | 1007.1 |
| 20260506215009 | 60 | 198 | 6.0 | 12.0 | 0.01 | 0.02 | 0.02 | 87 | 1007.1 |
| 20260506214510 | 60 | 209 | 4.0 | 13.0 | 0.02 | 0.02 | 0.02 | 87 | 1007.1 |
| 20260506214007 | 60 | 206 | 5.0 | 13.0 | 0.02 | 0.02 | 0.02 | 86 | 1007.1 |
| 20260506213510 | 60 | 229 | 5.0 | 13.0 | 0.02 | 0.02 | 0.02 | 86 | 1007.0 |
| 20260506213025 | 60 | 231 | 4.0 | 15.0 | 0.01 | 0.01 | 0.01 | 86 | 1007.0 |
| 20260506212507 | 60 | 231 | 4.0 | 16.0 | 0.01 | 0.01 | 0.01 | 86 | 1007.1 |
| 20260506212010 | 60 | 248 | 5.0 | 16.0 | 0.01 | 0.01 | 0.01 | 86 | 1007.1 |
| 20260506211537 | 60 | 199 | 5.0 | 13.0 | 0.01 | 0.01 | 0.01 | 85 | 1007.2 |
| 20260506211009 | 61 | 232 | 5.0 | 13.0 | 0.01 | 0.01 | 0.01 | 85 | 1007.2 |
| 20260506210507 | 61 | 217 | 5.0 | 13.0 | 0.01 | 0.01 | 0.01 | 85 | 1007.1 |
| 20260506210031 | 61 | 238 | 7.0 | 13.0 | 0.01 | 0.01 | 0.01 | 84 | 1007.2 |
| 20260506205511 | 61 | 222 | 3.0 | 16.0 | 0.01 | 0.01 | 0.01 | 84 | 1007.2 |
| 20260506205007 | 61 | 234 | 7.0 | 16.0 | 0.01 | 0.01 | 0.01 | 83 | 1007.3 |
| 20260506204516 | 61 | 244 | 3.0 | 14.0 | 0.00 | 0.00 | 0.00 | 82 | 1007.3 |
| 20260506204007 | 61 | 214 | 6.0 | 14.0 | 0.00 | 0.00 | 0.00 | 82 | 1007.2 |
| 20260506203506 | 61 | 237 | 8.0 | 14.0 | 0.00 | 0.00 | 0.00 | 81 | 1007.2 |
| 20260506203015 | 61 | 211 | 6.0 | 13.0 | 0.00 | 0.00 | 0.00 | 81 | 1007.2 |
| 20260506202510 | 61 | 158 | 6.0 | 13.0 | 0.00 | 0.00 | 0.00 | 80 | 1007.2 |
| 20260506202012 | 61 | 248 | 6.0 | 11.0 | 0.00 | 0.00 | 0.00 | 80 | 1007.1 |